STARLINK-1319 (45379 NORAD) Tracking and Keplerian Element Data

This shows tracking and keplerian element data for the satellite.

Feedback or suggestion? Click here.




ElementValue
Catalog45379
NameSTARLINK-1319
Epoch Orbit175
Epoch Day196.91667824
Epoch Year2020
RAAN71.2525
Inclination53.0009
Eccentricity0.0001349
Argument of Perigee102.7562
Mean Anonmoly216.6225
Mean Motion15.05582052
Decay Rate-0.00018225
L11 45379U 20019V 20196.91667824 -.00018225 00000-0 -12348-2 0 9991
L22 45379 53.0009 71.2525 0001349 102.7562 216.6225 15.05582052 1759

Live tracking and technical data element details for STARLINK-1319 (NORAD 45379). STARLINK-1319 can be tracked NOW for your location showing map with azimuth and elevation plus other details from your city location.

Track the satellite on the map from your city or location and see movement details for azimuth, elevation, latitude, longitude, range, height, and movement on the map or in text.







IsCatalogInMostPopularTable: catalog: 45379, numindb: 25
Update: records affected: 1



GetName: 45379 STARLINK-1319

Hit Count: updated at: Thu, 16 Jul 2020 02:47:52 GMT